Regional Weather Roundup
Issued by NWS

Home | Current Version | Previous Version | Text Only | Print | Product List | Glossary Off
Versions: 1 2 3 4 5 6 7 8 9 10 11 12 13 14 15 16 17 18 19 20 21 22 23 24 25 26 27 28 29 30 31 32 33 34 35 36 37 38 39 40 41 42 43 44 45 46 47 48 49 50

000
ASUS45 KTFX 210904
RWRMT
MONTANA HOURLY WEATHER ROUNDUP
NATIONAL WEATHER SERVICE GREAT FALLS MT
304 AM MDT TUE OCT 21 2014

NOTE: "FAIR" INDICATES FEW OR NO CLOUDS BELOW 12000 FEET WITH NO
SIGNIFICANT WEATHER AND/OR OBSTRUCTIONS TO VISIBILITY.

* THESE STATIONS ARE NOT UNDER NWS QUALITY CONTROL. THEY DO NOT
   REPORT WEATHER SUCH AS PRECIPITATION OR FOG.

MTZ001>007-043-211000-
WEST OF THE DIVIDE
CITY           SKY/WX    TMP DP  RH WIND       PRES   REMARKS
KALISPELL      MOCLDY    43  39  86 NE3       29.76R
MISSOULA       MOCLDY    52  39  61 N3        29.75F
BUTTE          PTCLDY    46  34  63 NW5       29.82S
MULLAN PASS    FOG       37  37 100 VRB7      29.85S VSB M1/4 WCI  32
* ESSEX        N/A       45  34  65 S7         N/A
* LINCOLN      N/A       35  31  85 N/A        N/A
* POLSON       N/A       53  39  59 N/A        N/A
* RONAN APT    CLOUDY    50  45  83 N/A        N/A
* SEELEY LAKE  N/A       38  34  86 SE2        N/A
* THOMP F APT  CLOUDY    51  30  45 E6G11      N/A
$$

MTZ008-052>055-211000-
SOUTHWEST MONTANA
CITY           SKY/WX    TMP DP  RH WIND       PRES   REMARKS
BOZEMAN        CLEAR     46  36  68 S8        29.78F
DILLON         PTCLDY    50  34  54 N5        29.80R
W YELLOWSTONE  PTCLDY    27  25  92 CALM      29.95F
* THREE FORKS  CLEAR     52  45  77 N/A        N/A
* BOULDER HILL N/A       53  29  40 S6         N/A
* MONIDA PASS  N/A       46  32  58 SE6        N/A
* RAYNOLDS PAS N/A       45  28  51 S8         N/A
* WHITEHALL    N/A       48  33  56 N9         N/A
* WISE RIVER   N/A       41  33  73 W6         N/A
$$

MTZ009>010-012-014-046-048-049-054-211000-
EAST SLOPES AND CENTRAL MONTANA
CITY           SKY/WX    TMP DP  RH WIND       PRES   REMARKS
CUT BANK       PTCLDY    46  30  54 NW7       29.68S
GREAT FALLS    CLEAR     61  34  36 S14       29.67F
HELENA         CLEAR     52  36  55 W5        29.72F
MALMSTROM AFB  CLEAR     59  36  42 S14       29.68F
* CONRAD       PTCLDY    37  30  76 N/A        N/A
* DEARBORN     N/A       44  36  74 SE4        N/A
* EAST GLACIER N/A       51  30  45 SW4        N/A
* MONARCH      N/A       56  30  37 S6G11      N/A
* PENDROY      N/A       55  33  43 NW9        N/A
* ROGERS PASS  N/A       51  30  45 NW2        N/A
* SAINT MARY   N/A       41  30  65 SE3        N/A
* SWEET GRASS  N/A       61  25  25 SW10       N/A
$$

MTZ011-013-016-021-035-040-045-047-050-051-211000-
NORTH CENTRAL MONTANA
CITY           SKY/WX    TMP DP  RH WIND       PRES   REMARKS
HAVRE          CLEAR     37  36  96 W6        29.65R WCI  32
LEWISTOWN      CLEAR     61  36  39 S13       29.75F
* CHINOOK      CLEAR     48  39  71 E8        29.65S
* FORT BENTON  CLEAR     46  32  58 CALM      29.66S
* CHESTER      N/A       42  28  58 N/A        N/A
* DENTON       N/A       47  34  61 NE2        N/A
* GEYSER       N/A       60  35  39 S11        N/A
* JUDITH GAP   N/A       45  34  65 SW6        N/A
* LOMA         N/A       48  36  63 NE4        N/A
$$

MTZ017>020-022>027-061-062-211000-
NORTHEAST MONTANA
CITY           SKY/WX    TMP DP  RH WIND       PRES   REMARKS
GLASGOW        CLEAR     48  37  66 E12       29.70F
GLENDIVE       CLEAR     43  37  79 N5        29.78F
JORDAN         CLEAR     37  32  82 CALM      29.73F
SIDNEY         CLEAR     39  36  89 CALM      29.79S
WOLF POINT     CLEAR     39  36  89 E5        29.74S WCI  35
* BEAVER HILL  N/A       51  41  69 SE12       N/A
* CIRCLE       N/A       57  42  57 N/A        N/A
* LINDSAY DVD  N/A       51  41  69 E1         N/A
* NAVAJO       N/A       47  39  74 SW4        N/A
* SACO         N/A       45  39  80 E5         N/A
$$

MTZ028>042-056>058-211000-
SOUTHCENTRAL AND SOUTHEAST MONTANA
CITY           SKY/WX    TMP DP  RH WIND       PRES   REMARKS
BAKER          CLEAR     45  39  80 SE9       29.79F
BILLINGS       CLEAR     55  28  35 SW13      29.77F
LIVINGSTON     CLEAR     54  34  47 CALM      29.80S
MILES CITY     CLEAR     46  37  71 CALM      29.75F
* LAUREL APT   CLEAR     50  27  41 N/A        N/A
* ROUNDUP APT  CLEAR     48  28  46 SW6        N/A
* ALZADA       N/A       45  39  80 E4         N/A
* HYSHAM       N/A       62  26  25 W6         N/A
* LAME DEER    N/A       64  36  35 N/A        N/A
* REED POINT   N/A       38  35  89 E1G6       N/A
* ROSCOE HILL  N/A       61  25  25 S10        N/A
$$

REGIONAL REPORTS...DAKOTAS
CITY           SKY/WX    TMP DP  RH WIND       PRES   REMARKS
WILLISTON      CLEAR     39  36  89 CALM      29.78F
DICKINSON      CLEAR     43  36  76 SE9       29.80F
BEACH          N/A       43  41  93 S3        29.80S
CROSBY         CLEAR     50  41  71 S14       29.78F
TIOGA          CLEAR     46  41  83 NE5       29.84F
BISMARCK       CLEAR     54  36  51 SE10      29.88F
GRAND FORKS    CLEAR     39  36  89 SE9       30.04F WCI  33
FARGO          CLEAR     45  37  74 SE15      30.05F
RAPID CITY     CLEAR     52  41  66 SE9       29.85F
$$

REGIONAL REPORTS...WYOMING/IDAHO/WASHINGTON
CITY           SKY/WX    TMP DP  RH WIND       PRES   REMARKS
GILLETTE       CLEAR     57  34  42 S18G25    29.85F
SHERIDAN       CLEAR     43  30  60 CALM      29.81F
CODY           CLEAR    N/A N/A N/A S10       29.87F
YELLOWSTONE LA CLEAR     28  27  96 CALM      30.05F
SALMON         MOCLDY    54  36  51 CALM      29.74S
MULLAN PASS    FOG       37  37 100 VRB7      29.85S VSB M1/4 WCI  32
SAND POINT     CLOUDY    54  43  67 SW7       29.81F
SPOKANE        CLOUDY    48  45  89 S12       29.86R

$$




USA.gov is the U.S. government's official web portal to all federal, state and local government web resources and services.